www.pogodaiklimat.ru

Погода и климат >> Архив погоды >> Россия >> Ленинградская область >> Сосновый Бор


ПОГОДА в Сосновом Бору

  • Прогноз погоды в Сосновом Бору
  • Монитор погоды в Сосновом Бору

АРХИВ ПОГОДЫ в Сосновом Бору

Время (UTC), дата Ветер
(напр.,м/с)
 
Видим.   Явления Облачность Т
(С)
Тd
(С)
f
(%)
Тe
(С)
Тes
(С)
Комфортность P
(гПа)
Po
(гПа)
Тmin
(С)
Tmax
(С)
R
(мм)
R24
(мм)
S
(см)
12 10.06 З 4 н/о 4/3
[Cu med, cong Ci fib]
+17.9 +9.5 58 +18 +23 1022.3 1019.8
15 10.06 З 4
{10}
н/о 8/3
[Cu med, cong Ci fib]
+17.3 +8.1 55 +17 +19 1022.1 1019.6
18 10.06 ЮЗ 2 н/о 9/0
[Ac lent Cc]
+16.9 +7.4 53 +17 +17 1021.6 1019.1 +19.4
21 10.06 ЮЗ 2 н/о 10/0
[Ac lent Ci fib]
+13.4 +7.6 68 +13 +13 1021.5 1019.0
00 11.06 ЮЗ 2 н/о 10/9
[Sc Cc]
+12.2 +8.5 78 +11 +11 1022.7 1020.2
03 11.06 ЮЗ 1 н/о 6/0
[Ac trans Cc]
+12.8 +9.5 80 +13 +14 1022.9 1020.4 +11.7
06 11.06 З 2 н/о 1/0
[Ci fib]
+17.2 +9.7 61 +18 +25 1023.3 1020.8 +11.7
09 11.06 СЗ 4 н/о 10/0
[]
+16.9 +10.9 68 +16 +21 1023.9 1021.4
12 11.06 СЗ 4 н/о 10/0
[As trans Cc]
+18.6 +7.8 49 +19 +23 1023.3 1020.9
15 11.06 З 1 н/о 10/0
[Ac As]
+18.3 +8.0 51 +20 +21 1022.7 1020.3
18 11.06 штиль 0 н/о 10/3
[Sc diur, vesp Ac lent]
+17.3 +9.6 61 +17 +17 1021.7 1019.2 +19.5
21 11.06 штиль 0 н/о 10/10
[Sc]
+14.0 +10.6 80 +14 +14 1021.9 1019.4
00 12.06 В 3 н/о 8/6
[Sc Ci fib]
+13.3 +10.1 81 +12 +12 1022.1 1019.6
03 12.06 СВ 1 н/о 3/3
[Sc Ac trans Cc]
+13.6 +7.0 64 +14 +15 1022.9 1020.4 +13.6
06 12.06 С 2 н/о 8/0
[Ac trans Cc]
+16.5 +9.7 64 +17 +22 1023.9 1021.4 +12.2
09 12.06 В 4 н/о 9/0
[Ci]
+17.4 +6.2 48 +17 +25 1024.9 1022.4
12 12.06 СВ 3
{11}
н/о 9/0
[Ci fib]
+16.9 +3.7 41 +17 +25 1026.0 1023.5
15 12.06 СВ 2
{11}
н/о 3/0
[Ci fib]
+16.2 +3.4 42 +16 +21 1025.9 1023.4
18 12.06 В 4
{11}
н/о 6/0
[Ac cuf Cc]
+13.2 +2.5 48 +12 +12 1025.9 1023.4 +17.9
21 12.06 В 4 н/о 10/10
[Sc]
+11.1 +3.9 61 +9 +9 1026.1 1023.6
00 13.06 В 4 н/о 8/6
[Sc Ac trans]
+10.6 +2.4 57 +8 +8 1026.4 1023.9
03 13.06 В 4
{10}
н/о 4/0
[Ac trans Ci fib]
+9.4 +2.7 63 +7 +7 1025.9 1023.4 +9.4
06 13.06 ЮВ 5
{11}
н/о 10/1
[Sc Ac cast Cc]
+14.8 +5.6 54 +13 +15 1025.5 1023.0 +9.4
09 13.06 ЮВ 6-12
{11}
н/о 10/6
[Sc Ac trans]
+17.6 +7.4 51 +17 +18 1024.0 1021.5
12 13.06 ЮВ 4
{12}
н/о 10/0
[Ac As Cc]
+19.1 +7.5 47 +20 +25 1022.9 1020.5
15 13.06 ЮВ 5-10
{10}
н/о 8/3
[Sc Ac cuf Cc]
+19.4 +9.0 51 +20 +21 1020.5 1018.1
18 13.06 В 2 н/о гроза без осадков {ливн. осадки} 9/9
[Cb cap Ci sp]
+15.5 +12.9 84 +15 +15 1019.9 1017.4 +20.2 3
21 13.06 ЮВ 2 н/о {гроза, ливн. осадки} 3/3
[Cb calv Ci ing]
+13.9 +11.3 84 +13 +13 1018.0 1015.5
00 14.06 ЮВ 1 н/о {гроза, ливн. осадки} 10/3
[Sc Cs]
+13.2 +12.1 93 +13 +13 1016.5 1014.0
03 14.06 В 2 н/о 9/8
[Sc Ac lent Ci sp]
+13.0 +11.8 92 +12 +12 1015.5 1013.0 +12.9
06 14.06 В 2 н/о 9/8
[Sc Ac cast Cc]
+15.8 +13.1 84 +16 +17 1015.6 1013.2 +12.9 9
09 14.06 СВ 2 н/о 9/0
[Ac cast Cc]
+20.5 +15.0 71 +24 +35 комфорт 1015.7 1013.3
12 14.06 В 4 н/о 10/9
[Sc Ac As]
+19.9 +14.5 71 +22 +22 комфорт 1016.4 1014.0
15 14.06 В 1 н/о 10/10
[Sc]
+18.1 +14.0 77 +19 +19 1016.1 1013.7
18 14.06 З 2 н/о 10/10
[St]
+14.6 +12.6 88 +14 +14 1016.4 1013.9 +21.6
21 14.06 З 3 н/о слаб. морось 10/10
[St]
+13.2 +12.6 96 +12 +12 1016.8 1014.3
00 15.06 З 3 н/о слаб. морось 10/10
[St]
+12.8 +12.6 99 +11 +11 1015.7 1013.2
03 15.06 ЮЗ 4
{10}
н/о в посл. час морось 10/10
[St]
+12.4 +12.2 99 +10 +10 1015.5 1013.0 +12.3
06 15.06 З 3 н/о {морось} 10/10
[St]
+12.6 +12.0 96 +11 +11 1015.9 1013.4 +12.3 0.9
09 15.06 З 4 н/о 10/10
[St]
+13.3 +12.0 92 +12 +12 1016.3 1013.8
12 15.06 З 3 н/о 10/10
[Sc]
+13.0 +12.0 94 +12 +12 1017.2 1014.7
15 15.06 З 3 н/о 9/9
[Cu Sc]
+14.7 +12.4 86 +14 +14 1016.5 1014.0
18 15.06 З 1 н/о н/о +14.5 +12.8 90 +15 +15 1016.4 1013.9 +15.2
21 15.06 штиль 0 н/о 9/8
[Sc Ac trans Ci fib]
+11.0 +10.6 97 +10 +10 1016.3 1013.8
00 16.06 штиль 0 н/о 1/0
[]
+11.9 +11.4 97 +11 +11 1016.1 1013.6
03 16.06 Ю 1 н/о 1/1
[Sc]
+10.5 +10.3 99 +10 +11 1016.1 1013.6 +10.3
06 16.06 З 3 н/о 1/1
[Cu hum]
+15.6 +13.2 86 +15 +20 1016.3 1013.8 +10.3
09 16.06 З 2 н/о 1/0
[]
+17.3 +12.4 73 +18 +31 опасность
простуды
1016.2 1013.8
12 16.06 СЗ 2 н/о 1/0
[]
+17.5 +12.8 74 +18 +30 опасность
простуды
1015.5 1013.1
15 16.06 З 2 н/о ясно +18.9 +12.0 64 +20 +25 1014.6 1012.2
21 16.06 ЮЗ 2 н/о 1/0
[Ac trans]
+14.2 +12.1 87 +14 +14 1013.6 1011.1

 

Местоположение метеостанции Сосновый Бор (Ленинградская область, Россия): широта 59.82 долгота 29.17 высота над уровнем моря 21 м.

В архиве по умолчанию представлена погода в Сосновом Бору за последнюю неделю. Архивные данные за месяц целиком и за предыдущие месяцы, начиная с января 2011 года, Вы можете получить, выбрав интересующий диапазон дат из раскрывающегося списка и нажав кнопку "Ввод!".


*Определитесь, кто Вы:
робот инопланетянин человек

Внимание! Время в таблицах - всемирное. Для получения местного времени необходимо прибавить поправку, которая равна 3 ч.

Смотрите также архив погоды в соседних городах и на ближайших метеорологических станциях:

Погода в Шепелево (Ленинградская область, Россия) (7 км)
Погода в Ломоносове (город Санкт-Петербург, Россия) (36 км)
Погода в Кронштадте (город Санкт-Петербург, Россия) (37 км)
Погода в Озерках (Ленинградская область, Россия) (43 км)
Погода в Волосово (Ленинградская область, Россия) (47 км)
Погода в Лисьем Носу (город Санкт-Петербург, Россия) (50 км)
Погода в Рощино (Ленинградская область, Россия) (54 км)
Погода в Кингисеппе (Ленинградская область, Россия) (59 км)
Погода в Санкт-Петербурге (город Санкт-Петербург, Россия) (65 км)
Погода в Белогорке (Ленинградская область, Россия) (75 км)

Пояснения к столбцам:

Ветер - указаны скорость ветра в м/с - средняя за 10 мин, порывы в срок и между сроками (в фигурных скобках) и направление, откуда дует ветер: С - северный, СВ - северо-восточный, В - восточный, ЮВ - юго-восточный, Ю - южный, ЮЗ - юго-западный, З - западный, СЗ - северо-западный.
Видимость - горизонтальная дальность видимости в метрах или километрах. При видимости от 1 до 10 км при отсутствии осадков обычно наблюдается дымка, при ухудшении видимости до 1 км и менее - туман. В сухую погоду видимость может ухудшаться дымом, пылью или мглою.
Явления - указаны атмосферные явления, наблюдавшиеся в срок или в последний час перед сроком; фигурными скобками обозначены явления, наблюдавшиеся между сроками (за 1-3 часа до срока); квадратными скобками обозначены град или гололедные отложения с указанием их диаметра в мм.
Облачность - указаны через наклонную черту общая и нижняя облачность в баллах и высота нижней границы облаков в метрах; квадратными скобками обозначены формы облаков: Ci - перистые, Cs - перисто-слоистые, Cc - перисто-кучевые, Ac - высококучевые, As - высокослоистые, Sc - слоисто-кучевые, Ns - слоисто-дождевые, Cu - кучевые, Cb - кучево-дождевые. Подробнее классификацию облаков см. в Атласе облаков (PDF).
T - Температура воздуха - температура, измеренная на высоте 2 м над землей.
Td - Температура точки росы - температура, при понижении до которой содержащийся в воздухе водяной пар достигнет насыщения.
f - Относительная влажность воздуха - влажноcть воздуха, измеренная на высоте 2 м над землей.
Te - Эффективная температура - температура, которую ощущает одетый по сезону человек в тени. Характеристика душности погоды. При расчете учитывается влияние влажности воздуха и скорости ветра на теплоощущения человека.
Tes - Эффективная температура на солнце - температура, которую ощущает человек, с поправкой на солнечный нагрев. Характеристика знойности погоды. Зависит от высоты солнца над горизонтом, облачности и скорости ветра. Ночью, в пасмурную погоду, а также при ветре 12 м/с и более поправка равна нулю.
P - Атмосферное давление - приведенное к уровню моря атмосферное давление.
Po - Атмосферное давление - измеренное на уровне метеостанции атмосферное давление.
Tmin - Минимальная температура - минимум температуры воздуха на высоте 2 м над землей.
Tmax - Максимальная температура - максимум температуры воздуха на высоте 2 м над землей.
R - Количество осадков - Количество выпавших осадков за период времени, мм. При наведении курсора мыши на число - период времени, за который выпало указанное количество осадков.
R24 - Количество осадков - Количество выпавших осадков за 24 часа, мм.
S - Снежный покров - Высота снежного покрова, см. При наведении курсора мыши на число - состояние снежного покрова и степень покрытия местности в баллах.